Camp Douglas, WI

6:20 PM CST on February 24, 2017 (GMT -0600)
Volk

Weather History for KVOK - May, 2014

Change the Weather History Date:

Saturday, May 31, 2014

  Actual Average Record
Temperature  
Mean Temperature 68 °F -  
Max Temperature 86 °F 67 °F 86 °F (2014)
Min Temperature 50 °F 52 °F 33 °F (2015)
Cooling Degree Days 3    
Growing Degree Days 18 (Base 50)    
Moisture  
Dew Point 55 °F    
Average Humidity 77    
Maximum Humidity 100    
Minimum Humidity 31    
Precipitation  
Precipitation 0.04 in - - ()
Sea Level Pressure  
Sea Level Pressure 30.11 in    
Wind  
Wind Speed 5 mph (SSE)    
Max Wind Speed 21 mph    
Max Gust Speed 34 mph    
Visibility 7 miles    
Events Rain , Thunderstorm    
Averages and records for this station are not official NWS values.
T = Trace of Precipitation, MM = Missing Value Source: NWS Daily Summary

Daily Weather History Graph

Daily Weather History Graph

Search for Another Location

Airport or City:

Trip Planner

Search our weather history database for the weather conditions in past years. The results will help you decide how hot, cold, wet, or windy it might be!

Date:

Astronomy

May. 31, 2014 Rise Set
Actual Time 5:22 AM CDT 8:36 PM CDT
Civil Twilight 4:46 AM CDT 9:11 PM CDT
Nautical Twilight 4:01 AM CDT 9:56 PM CDT
Astronomical Twilight 3:05 AM CDT 10:52 PM CDT
Moon 8:02 AM CDT (5/31) 10:50 PM CDT (5/31)
Length of Visible Light 16h 24m
Length of Day
15h 13m
Waxing Crescent, 8% of the Moon is Illuminated
May 31
Waxing Crescent
Jun 5
First Quarter
Jun 12
Full
Jun 19
Last Quarter
Jun 27
New

Hourly Weather History & Observations

Time (CDT) Temp. Heat Index Dew Point Humidity Pressure Visibility Wind Dir Wind Speed Gust Speed Precip Events Conditions
12:58 AM 56.1 °F - 55.9 °F 99% 30.17 in 10.0 mi SE 3.5 mph - N/A   Clear
1:58 AM 55.2 °F - 55.0 °F 99% 30.16 in 10.0 mi SSE 5.8 mph - N/A   Clear
2:58 AM 51.3 °F - 51.3 °F 100% 30.17 in 10.0 mi ESE 4.6 mph - N/A   Clear
3:58 AM 50.2 °F - 50.2 °F 100% 30.15 in 10.0 mi SSE 5.8 mph - N/A   Clear
4:58 AM 51.8 °F - 51.8 °F 100% 30.17 in 10.0 mi SE 3.5 mph - N/A   Clear
5:08 AM 50.0 °F - 50.0 °F 100% 30.16 in 2.5 mi SE 3.5 mph - N/A   Clear
5:18 AM 50.0 °F - 50.0 °F 100% 30.16 in 6.0 mi ESE 2.3 mph - N/A   Clear
5:23 AM 50.0 °F - 50.0 °F 100% 30.16 in 2.5 mi ESE 2.3 mph - N/A   Clear
5:28 AM 50.0 °F - 50.0 °F 100% 30.16 in 1.0 mi ESE 2.3 mph - N/A   Clear
5:33 AM 50.0 °F - 50.0 °F 100% 30.16 in 0.8 mi SE 3.5 mph - N/A   Clear
5:38 AM 50.0 °F - 50.0 °F 100% 30.16 in 1.0 mi SE 2.3 mph - N/A   Clear
5:43 AM 50.0 °F - 50.0 °F 100% 30.16 in 1.5 mi ESE 2.3 mph - N/A   Clear
5:53 AM 50.0 °F - 50.0 °F 100% 30.16 in 2.5 mi East 2.3 mph - N/A   Clear
5:58 AM 50.2 °F - 50.2 °F 100% 30.17 in 3.0 mi East 2.3 mph - N/A   Clear
6:03 AM 50.0 °F - 50.0 °F 100% 30.16 in 2.5 mi ESE 2.3 mph - N/A   Clear
6:08 AM 50.0 °F - 50.0 °F 100% 30.16 in 2.0 mi ESE 2.3 mph - N/A   Clear
6:13 AM 50.0 °F - 50.0 °F 100% 30.16 in 4.0 mi SE 2.3 mph - N/A   Clear
6:58 AM 57.6 °F - 57.6 °F 100% 30.17 in 10.0 mi SSE 2.3 mph - N/A   Clear
7:58 AM 64.4 °F - 57.2 °F 77% 30.16 in 10.0 mi SSE 4.6 mph - N/A   Mostly Cloudy
8:58 AM 69.8 °F - 59.0 °F 68% 30.15 in 10.0 mi SE 4.6 mph - N/A   Mostly Cloudy
9:58 AM 77.0 °F - 57.2 °F 50% 30.15 in 10.0 mi SSW 8.1 mph - N/A   Scattered Clouds
10:58 AM 78.8 °F - 57.2 °F 47% 30.14 in 10.0 mi South 11.5 mph - N/A   Scattered Clouds
11:58 AM 82.4 °F 81.7 °F 55.4 °F 39% 30.13 in 10.0 mi South 8.1 mph - N/A   Partly Cloudy
12:58 PM 84.2 °F - 51.8 °F 33% 30.11 in 10.0 mi SSE 10.4 mph - N/A   Partly Cloudy
1:58 PM 84.2 °F - 51.8 °F 33% 30.09 in 10.0 mi SE 10.4 mph - N/A   Partly Cloudy
2:58 PM 86.0 °F 84.2 °F 53.6 °F 33% 30.07 in 10.0 mi SSE 12.7 mph 18.4 mph N/A   Partly Cloudy
3:58 PM 86.4 °F - 52.7 °F 31% 30.04 in 10.0 mi SSE 8.1 mph - N/A   Clear
4:58 PM 86.0 °F 85.2 °F 58.6 °F 39% 30.02 in 10.0 mi South 8.1 mph - N/A   Clear
5:58 PM 84.7 °F 83.6 °F 56.1 °F 37% 30.02 in 10.0 mi South 9.2 mph - N/A   Clear
6:58 PM 82.9 °F 82.1 °F 55.8 °F 39% 30.00 in 10.0 mi SSE 9.2 mph - N/A   Partly Cloudy
7:58 PM 79.0 °F - 56.3 °F 46% 30.00 in 10.0 mi SE 4.6 mph - N/A   Clear
8:58 PM 70.2 °F - 59.7 °F 69% 29.99 in 10.0 mi SE 3.5 mph - N/A   Partly Cloudy
9:58 PM 68.5 °F - 58.8 °F 71% 29.99 in 10.0 mi Calm Calm - N/A   Partly Cloudy
10:58 PM 68.4 °F - 60.6 °F 76% 29.99 in 10.0 mi East 3.5 mph - N/A   Scattered Clouds
11:42 PM 73.4 °F - 62.6 °F 69% 30.05 in 10.0 mi SSW 17.3 mph 34.5 mph N/A Rain Light Rain
11:47 PM 71.6 °F - 66.2 °F 83% 30.04 in 5.0 mi SW 20.7 mph 34.5 mph N/A Rain , Thunderstorm Heavy Rain
11:52 PM 69.8 °F - 66.2 °F 88% 30.04 in 5.0 mi SSW 13.8 mph 34.5 mph N/A Rain , Thunderstorm Light Rain
11:56 PM 68.0 °F - 66.2 °F 94% 30.04 in 8.0 mi SSW 17.3 mph 25.3 mph N/A Rain , Thunderstorm Light Thunderstorms and Rain
11:58 PM 68.0 °F - 66.2 °F 94% 30.04 in 9.0 mi SSW 18.4 mph 25.3 mph 0.04 in Rain , Thunderstorm Light Thunderstorms and Rain